OAO 3 (COPERNICUS) (6153 NORAD) Tracking and Keplerian Element Data

This shows tracking and keplerian element data for the satellite.

Feedback or suggestion? Click here.




ElementValue
Catalog6153
NameOAO 3 (COPERNICUS)
Epoch Orbit83456
Epoch Day354.12576204
Epoch Year2025
RAAN30.5915
Inclination35.0068
Eccentricity0.0007088
Argument of Perigee232.86
Mean Anonmoly157.1724
Mean Motion14.59912316
Decay Rate2.72E-06
L11 06153U 72065A 25354.12576204 .00000272 00000+0 60331-4 0 9998
L22 06153 35.0068 30.5915 0007088 232.8600 157.1724 14.59912316834560



Live tracking and technical data element details for OAO 3 (COPERNICUS) (NORAD 6153). OAO 3 (COPERNICUS) can be tracked NOW for your location showing map with azimuth and elevation plus other details from your city location.







IsCatalogInMostPopularTable: catalog: 6153, numindb: 725
Update: records affected: 1



GetName: 6153 OAO 3 (COPERNICUS)

Hit Count: updated at: Sat, 14 Mar 2026 03:19:25 GMT